Regional Weather Roundup
Issued by NWS

Home | Current Version | Previous Version | Graphics & Text | Print | Product List | Glossary Off
Versions: 1 2 3 4 5 6 7 8 9 10 11 12 13 14 15 16 17 18 19 20 21 22 23 24 25 26 27 28 29 30 31 32 33 34 35 36 37 38 39 40 41 42 43 44 45 46 47 48 49 50

440
ASUS44 KLIX 211410
RWRLA
LOUISIANA WEATHER ROUNDUP
NATIONAL WEATHER SERVICE NEW ORLEANS LA
800 AM CST SUN DEC 21 2014

NOTE: "FAIR" INDICATES FEW OR NO CLOUDS BELOW 12,000 FEET WITH NO
      SIGNIFICANT WEATHER AND/OR OBSTRUCTIONS TO VISIBILITY.
      SKY/WX - SKY CONDITION AND SIGNIFICANT WEATHER.
      TMP - AIR TEMPERATURE.    DP   - DEWPOINT TEMPERATURE.
      RH  - RELATIVE HUMIDITY.  PRES - PRESSURE.
      HX  - HEAT INDEX.         WCI  - WIND CHILL INDEX.

*  THESE STATIONS ARE NOT NWS OR FAA STATIONS AND ARE NOT UNDER
   NWS QUALITY CONTROL.

LAZ040-048-061>063-065-066-069-211500-
SOUTHEAST LOUISIANA

CITY           SKY/WX    TMP DP  RH WIND       PRES   REMARKS
N.O. AUDUBON     N/A     52  50  92 MISG        N/A
N.O. INTL ARPT CLOUDY    53  48  83 NE7       30.11S
N.O. LAKEFRONT CLOUDY    54  48  80 E10       30.11S
N.O. DOWNTOWN* FAIR      52  45  76 NE6       30.11F
SLIDELL        CLOUDY    49  46  90 CALM      30.11R
BATON ROUGE    MOSUNNY   47  44  90 NE3       30.11F
BOOTHVILLE     CLOUDY    55  53  93 NE7       30.10R
BELLE CHASSE   CLOUDY    53  49  86 NE6       30.10S
BOGALUSA*        N/A     46  42  88 N6        30.14R
GALLIANO*      CLOUDY    55  52  89 MISG      30.11R
NEW ROADS*     CLOUDY    46  44  90 CALM      30.13S
GONZALES*      CLOUDY    50  49  98 NE3       30.11F
HAMMOND*       NOT AVBL
HOUMA*         NOT AVBL
PORT FOURCHON* CLOUDY    55  52  88 NE8       30.13R

$$

LAZ041-044-053-054-211500-
SOUTHWEST LOUISIANA

CITY           SKY/WX    TMP DP  RH WIND       PRES   REMARKS
LAKE CHARLES   FOG       45  45 100 CALM      30.14R VSB 1/4
LAFAYETTE      CLOUDY    48  47  96 VRB3      30.12S FOG
PATTERSON      CLOUDY    52  48  87 E6        30.13R
SALT POINT       N/A     54  49  83 VRB3      30.10S
NEW IBERIA     CLOUDY    50  47  89 E8        30.13R FOG
CHENAULT AIRPK CLOUDY    45  45 100 CALM      30.15R FOG

$$

LAZ027-028-211500-
CENTRAL LOUISIANA

CITY           SKY/WX    TMP DP  RH WIND       PRES   REMARKS
FORT POLK      NOT AVBL
ALEXANDRIA INT CLEAR     38  38 100 CALM      30.14S FOG
ALEXANDRIA     CLEAR     34  34 100 CALM      30.14S

$$

LAZ001-002-211500-
NORTHWEST LOUISIANA

CITY           SKY/WX    TMP DP  RH WIND       PRES   REMARKS
SHREVEPORT     PTCLDY    38  36  92 CALM      30.15S
BARKSDALE AFB  NOT AVBL
DTN SHREVEPORT PTCLDY    36  34  92 NE5       30.16S FOG     WCI  32

$$

LAZ014-016-211500-
NORTHEAST LOUISIANA

CITY           SKY/WX    TMP DP  RH WIND       PRES   REMARKS
MONROE         CLEAR     36  36 100 NW3       30.18R FOG
TALLULAH       CLEAR     39  35  86 NE5       30.15F

$$




USA.gov is the U.S. government's official web portal to all federal, state and local government web resources and services.